[[{"header":{"parameterUnit":"m.s-1","parameterCategory":1,"la1":30.2991,"la2":30.254,"lo1":-89.0895,"lo2":-89.0444,"dy":0.0017,"dx":0.0017,"nx":28,"ny":28,"refTime":"2023-08-20T03:00:00:Z","depth":0,"parameterNumber":2,"parameterNumberName":"U-component_of_WINDS"},"data":[0,0,0,0,0,0,0,0,0,0,0,0,0,0,0,0,0,0,0,0,0,0,0,0,0,0,0,0,0,0,0,0,0,0,0,0,0,0,0,0,0,0,0,0,0,0,0,0,0,0,0,0,0,0,0,0,0,0,-3.3006,-3.3006,0,-3.2995,-3.2994,-3.2994,-3.2908,-3.2906,-3.2904,-3.2902,-3.2891,-3.2892,-3.2894,0,0,0,0,0,0,0,0,0,0,0,0,0,-3.2955,-3.2956,-3.3006,-3.3006,-3.3006,-3.2995,-3.2994,-3.2994,-3.2909,-3.2906,-3.2904,-3.2901,-3.289,-3.2892,-3.2894,0,0,0,0,0,0,0,0,0,0,0,0,0,-3.2964,-3.2957,-3.3006,-3.2962,-3.2958,-3.2995,-3.2994,-3.2994,-3.2909,-3.2906,-3.2903,-3.29,-3.289,-3.2892,-3.2895,-3.2973,0,0,-3.2902,-3.2903,0,0,0,0,0,0,0,0,-3.2963,-3.2966,-3.2968,-3.2965,-3.296,-3.295,-3.2972,-3.2987,-3.291,-3.2928,-3.2902,-3.2898,-3.2913,-3.2913,-3.2918,-3.2973,-3.2972,-3.2902,-3.2904,-3.2905,-3.2906,0,0,0,0,0,0,0,-3.2963,-3.2966,-3.3002,-3.2969,-3.2964,-3.2943,-3.294,-3.2975,-3.2938,-3.2926,-3.292,-3.2919,-3.291,-3.2916,-3.2917,-3.2972,-3.2902,-3.2905,-3.2906,-3.2907,-3.309,-3.3094,0,0,0,0,0,0,-3.2968,-3.2966,-3.3002,-3.3001,-3.2954,-3.2946,-3.2944,-3.2956,-3.2938,-3.2932,-3.2922,-3.2915,-3.2913,-3.2914,-3.2917,-3.3006,-3.2905,-3.2907,-3.2909,-3.3087,-3.3091,-3.3095,0,0,0,0,0,0,-3.2968,-3.2972,-3.3002,-3.2982,-3.2984,-3.295,-3.2965,-3.2958,-3.2963,-3.2935,-3.2928,-3.2935,-3.2911,-3.2913,-3.296,-3.3005,-3.2908,-3.2911,-3.3083,-3.3088,-3.3093,-3.3188,0,0,0,0,0,0,-3.2966,-3.2973,-3.3002,-3.2983,-3.2985,-3.3046,-3.2968,-3.296,-3.2968,-3.2959,-3.2945,-3.2939,-3.2908,-3.2956,-3.2962,-3.3007,-3.2913,-3.3079,-3.3085,-3.3091,-3.318,-3.3195,-3.3208,0,0,0,0,0,-3.2965,-3.3029,-3.3004,-3.3009,-3.3021,-3.3048,-3.305,-3.3013,-3.2972,-3.3001,-3.2983,-3.294,-3.3,-3.2962,-3.2968,-3.3014,-3.3076,-3.3084,-3.3091,-3.3174,-3.3192,-3.3208,0,0,0,0,0,0,-3.3054,-3.3026,-3.2997,-3.3058,-3.3056,-3.3034,-3.3069,-3.3034,-3.3044,-3.3035,-3.2989,-3.2987,-3.304,-3.3032,-3.299,-3.3089,-3.303,-3.3039,-3.3092,-3.3109,-3.3123,-3.3122,-3.2915,0,0,0,0,0,-3.3081,-3.3105,-3.3079,-3.3135,-3.3136,-3.3103,-3.3114,-3.3085,-3.3082,-3.3081,-3.3066,-3.3065,-3.3083,-3.3096,-3.3111,-3.318,-3.3175,-3.3214,-3.3228,-3.324,-3.3247,-3.3282,-3.3299,-3.312,-3.312,-3.312,0,0,-3.3137,-3.3124,-3.3142,-3.3153,-3.3148,-3.3174,-3.3103,-3.3134,-3.3152,-3.3086,-3.3128,-3.3118,-3.3113,-3.3171,-3.3195,-3.3165,-3.3296,-3.325,-3.3259,-3.326,-3.3292,-3.3309,-3.3324,-3.3125,-3.3124,-3.3123,0,0,-3.325,-3.3244,-3.3289,-3.3286,-3.328,-3.3258,-3.3269,-3.3253,-3.3243,-3.3285,-3.3235,-3.3257,-3.329,-3.3289,-3.3292,-3.3407,-3.3367,-3.3413,-3.3485,-3.352,-3.3534,-3.3546,-3.3585,-3.36,-3.3422,-3.3422,-3.3422,0,-3.332,-3.3356,-3.3317,-3.335,-3.3356,-3.3298,-3.3343,-3.3342,-3.3342,-3.3347,-3.3314,-3.3354,-3.3347,-3.3403,-3.3431,-3.3436,-3.3447,-3.3413,-3.3535,-3.3547,-3.3558,-3.3595,-3.361,-3.3427,-3.3427,-3.3426,-3.3426,0,-3.3441,-3.3468,-3.3505,-3.3506,-3.3516,-3.3556,-3.3522,-3.3538,-3.351,-3.3491,-3.3535,-3.3525,-3.3536,-3.3548,-3.3521,-3.3601,-3.3582,-3.3543,-3.3483,-3.3581,-3.3615,-3.3629,-3.3435,-3.3433,-3.3432,-3.343,0,0,-3.3609,-3.3588,-3.3602,-3.3601,-3.3591,-3.3611,-3.3648,-3.3659,-3.3673,-3.3676,-3.3705,-3.3735,-3.3698,-3.3703,-3.3675,-3.3706,-3.3795,-3.3662,-3.3661,-3.3686,-3.3881,-3.3909,-3.3926,-3.377,-3.3773,-3.3775,-3.3881,0,-3.3716,-3.3778,-3.3744,-3.381,-3.3833,-3.3778,-3.3811,-3.3808,-3.3793,-3.3811,-3.3794,-3.3814,-3.3766,-3.3768,-3.3796,-3.3778,-3.3834,-3.3771,-3.3796,-3.3797,-3.3797,-3.3944,-3.3974,-3.4074,-3.3894,-3.3896,-3.3898,0,-3.385,-3.3857,-3.3926,-3.391,-3.3919,-3.3949,-3.3956,-3.3974,-3.3971,-3.3957,-3.3963,-3.3928,-3.3963,-3.3906,-3.3954,-3.3912,-3.3921,-3.3914,-3.3917,-3.3916,-3.3852,-3.3945,-3.4106,-3.412,-3.3919,-3.3917,-3.3916,0,-3.3963,-3.3991,-3.4034,-3.4036,-3.402,-3.4042,-3.4037,-3.403,-3.4039,-3.4046,-3.4051,-3.4063,-3.4069,-3.4079,-3.4048,-3.401,-3.41,-3.4041,-3.4089,-3.409,-3.4109,-3.4107,-3.4271,-3.4118,-3.4118,-3.4118,-3.4118,0,-3.4085,-3.4129,-3.4085,-3.4112,-3.4159,-3.412,-3.4168,-3.4157,-3.4152,-3.4175,-3.413,-3.4153,-3.4112,-3.4132,-3.4108,-3.4151,-3.4155,-3.4144,-3.4137,-3.4147,-3.4148,-3.4151,-3.4142,-3.4122,-3.4121,-3.412,-3.412,0,-3.4219,-3.4191,-3.4235,-3.4217,-3.4213,-3.4249,-3.4233,-3.4257,-3.4239,-3.427,-3.4275,-3.4247,-3.4267,-3.4238,-3.4256,-3.424,-3.4299,-3.4282,-3.43,-3.4294,-3.4344,-3.4339,-3.4512,-3.4532,-3.4369,-3.4371,-3.4372,0,-3.4297,-3.4329,-3.4315,-3.4327,-3.4324,-3.4345,-3.4354,-3.4318,-3.4329,-3.4327,-3.4352,-3.4369,-3.438,-3.4416,-3.4397,-3.441,-3.4392,-3.4452,-3.4394,-3.4403,-3.4391,-3.4389,-3.4391,-3.4463,-3.4465,-3.4467,-3.4468,0,-3.444,-3.4425,-3.4439,-3.4449,-3.4461,-3.4468,-3.4471,-3.4484,-3.4446,-3.4461,-3.4481,-3.449,-3.4508,-3.4525,-3.4534,-3.4528,-3.4492,-3.4487,-3.4499,-3.4508,-3.4517,-3.4511,-3.433,-3.4483,-3.4481,-3.448,-3.448,-3.4479,-3.4547,-3.4573,-3.4566,-3.4584,-3.4582,-3.4586,-3.4608,-3.4592,-3.4609,-3.462,-3.4598,-3.4624,-3.462,-3.4627,-3.4626,-3.4646,-3.462,-3.4637,-3.4641,-3.4645,-3.4652,-3.4515,-3.4648,-3.4647,-3.4647,-3.4646,-3.4646,0,-3.4685,-3.4679,-3.4696,-3.4701,-3.4715,-3.468,-3.4682,-3.4696,-3.4719,-3.4718,-3.473,-3.4753,-3.477,-3.4753,-3.4766,-3.4785,-3.4769,-3.479,-3.4787,-3.4786,-3.4676,-3.4663,-3.4803,-3.4803,-3.4803,-3.4803,-3.4803,-3.4803,-3.4759,-3.48,-3.4785,-3.4825,-3.4818,-3.4842,-3.4846,-3.4849,-3.4848,-3.4876,-3.489,-3.4878,-3.4871,-3.4883,-3.4897,-3.4892,-3.4898,-3.4924,-3.4913,-3.481,-3.4794,-3.4779,-3.4767,-3.4926,-3.4927,-3.5022,-3.5023,-3.5023]},{"header":{"parameterUnit":"m.s-1","parameterCategory":1,"la1":30.2991,"la2":30.254,"lo1":-89.0895,"lo2":-89.0444,"dy":0.0017,"dx":0.0017,"nx":28,"ny":28,"refTime":"2023-08-20T03:00:00:Z","depth":0,"parameterNumber":3,"parameterNumberName":"V-component_of_WINDS"},"data":[0,0,0,0,0,0,0,0,0,0,0,0,0,0,0,0,0,0,0,0,0,0,0,0,0,0,0,0,0,0,0,0,0,0,0,0,0,0,0,0,0,0,0,0,0,0,0,0,0,0,0,0,0,0,0,0,0,0,2.1713,2.1713,0,2.1738,2.1738,2.1738,2.1732,2.1732,2.1731,2.1731,2.1754,2.1755,2.1756,0,0,0,0,0,0,0,0,0,0,0,0,0,2.1657,2.1658,2.1713,2.1713,2.1713,2.1738,2.1738,2.1739,2.1732,2.1732,2.1731,2.1731,2.1753,2.1755,2.1756,0,0,0,0,0,0,0,0,0,0,0,0,0,2.1682,2.1659,2.1713,2.1713,2.1714,2.1738,2.1738,2.1739,2.1733,2.1732,2.1731,2.173,2.1753,2.1755,2.1756,2.178,0,0,2.1761,2.1762,0,0,0,0,0,0,0,0,2.168,2.1684,2.1713,2.1713,2.1714,2.1731,2.1727,2.1752,2.1733,2.1725,2.1731,2.173,2.1747,2.1749,2.1755,2.1781,2.1782,2.1761,2.1762,2.1763,2.1763,0,0,0,0,0,0,0,2.1679,2.1683,2.1723,2.1713,2.1714,2.1712,2.1714,2.1732,2.174,2.1726,2.1725,2.1729,2.1747,2.1753,2.1755,2.1783,2.1761,2.1762,2.1763,2.1764,2.183,2.1831,0,0,0,0,0,0,2.1677,2.1681,2.1722,2.1723,2.1695,2.1713,2.1716,2.1726,2.1739,2.1741,2.1729,2.1728,2.1751,2.1754,2.1756,2.1785,2.1763,2.1764,2.1765,2.183,2.1831,2.1832,0,0,0,0,0,0,2.1676,2.1681,2.1721,2.1702,2.1707,2.1715,2.1726,2.1727,2.1734,2.1742,2.1743,2.1735,2.1751,2.1754,2.1775,2.1786,2.1765,2.1766,2.1829,2.183,2.1831,2.1843,0,0,0,0,0,0,2.1674,2.168,2.169,2.1703,2.1708,2.1739,2.1727,2.1728,2.1737,2.1736,2.1747,2.1749,2.175,2.1772,2.1776,2.1788,2.1768,2.1828,2.1829,2.1831,2.1842,2.1845,2.1847,0,0,0,0,0,2.1672,2.1691,2.169,2.1695,2.172,2.174,2.1743,2.1745,2.1738,2.1747,2.1753,2.1748,2.1785,2.1774,2.1779,2.1791,2.1827,2.1829,2.1831,2.1841,2.1844,2.1847,0,0,0,0,0,0,2.1678,2.1693,2.1692,2.1716,2.1727,2.1739,2.175,2.1749,2.1761,2.176,2.1761,2.1764,2.1785,2.179,2.1779,2.1815,2.1804,2.1807,2.1811,2.1814,2.1817,2.1814,2.1769,0,0,0,0,0,2.1683,2.1698,2.171,2.173,2.1736,2.1742,2.1751,2.1752,2.1763,2.1767,2.1774,2.1784,2.1798,2.1806,2.1819,2.1843,2.1845,2.1854,2.1857,2.1859,2.1861,2.1874,2.1877,2.1838,2.1838,2.1837,0,0,2.1691,2.1701,2.171,2.1731,2.174,2.1755,2.1746,2.1762,2.1773,2.1769,2.1789,2.1795,2.1806,2.1829,2.1839,2.1834,2.1873,2.1861,2.1863,2.1864,2.1876,2.188,2.1883,2.1839,2.1839,2.1838,0,0,2.1714,2.1724,2.1742,2.1751,2.1765,2.177,2.1774,2.1787,2.1791,2.1811,2.1809,2.1822,2.1845,2.1854,2.1861,2.189,2.1886,2.1894,2.1907,2.192,2.1923,2.1926,2.1935,2.1939,2.1896,2.1896,2.1896,0,2.1722,2.1746,2.1751,2.1768,2.1777,2.1776,2.1794,2.1802,2.1819,2.1825,2.182,2.185,2.1857,2.1882,2.1889,2.1895,2.19,2.1891,2.1922,2.1925,2.1928,2.1937,2.1941,2.1897,2.1897,2.1897,2.1897,0,2.1756,2.1772,2.1785,2.1803,2.1814,2.1831,2.1838,2.1848,2.1849,2.1854,2.1875,2.1885,2.19,2.1906,2.1906,2.1931,2.1927,2.1922,2.1911,2.1932,2.1941,2.1945,2.1898,2.1898,2.1897,2.1897,0,0,2.1781,2.1803,2.1807,2.1816,2.1832,2.1844,2.1862,2.1878,2.1887,2.1899,2.1913,2.1934,2.193,2.1938,2.194,2.1951,2.1973,2.1945,2.1945,2.1949,2.2,2.2003,2.2007,2.1972,2.1972,2.1973,2.1999,0,2.1805,2.1837,2.1842,2.187,2.1885,2.1885,2.19,2.1912,2.1918,2.1931,2.1937,2.1952,2.1945,2.195,2.1962,2.1968,2.1983,2.1966,2.1984,2.1984,2.1979,2.2011,2.2014,2.2038,2.2002,2.2003,2.2003,0,2.1836,2.1851,2.1881,2.1896,2.1902,2.1916,2.1932,2.1945,2.1958,2.1961,2.1972,2.1972,2.199,2.198,2.2004,2.1993,2.2,2.2005,2.2006,2.2006,2.1994,2.2011,2.2046,2.2049,2.2009,2.2008,2.2008,0,2.1851,2.1878,2.19,2.1907,2.1925,2.1935,2.1943,2.1955,2.1965,2.1979,2.1985,2.2,2.2008,2.2019,2.2024,2.2016,2.2048,2.2038,2.205,2.205,2.2055,2.2055,2.209,2.2062,2.2062,2.2062,2.2062,0,2.1876,2.1894,2.1906,2.1919,2.1939,2.1946,2.1965,2.1973,2.1984,2.1998,2.1999,2.2012,2.2018,2.2032,2.2036,2.2055,2.2058,2.2061,2.2062,2.206,2.206,2.2064,2.2062,2.2063,2.2063,2.2063,2.2063,0,2.1895,2.1904,2.1927,2.1944,2.1948,2.1962,2.1976,2.1988,2.1995,2.2013,2.2017,2.2027,2.2043,2.205,2.2069,2.2072,2.2094,2.2093,2.209,2.2089,2.2101,2.2099,2.2139,2.2144,2.2115,2.2115,2.2115,0,2.191,2.1924,2.1942,2.1953,2.1961,2.1977,2.1988,2.1995,2.2006,2.2023,2.2033,2.205,2.2063,2.2089,2.2097,2.2112,2.2112,2.2125,2.2114,2.2112,2.2111,2.211,2.2111,2.2126,2.2127,2.2127,2.2127,0,2.1935,2.1939,2.1955,2.1973,2.1986,2.1999,2.2013,2.2021,2.203,2.2042,2.206,2.207,2.2091,2.2108,2.2124,2.2131,2.213,2.2131,2.2134,2.2132,2.2129,2.213,2.2094,2.2129,2.2129,2.2129,2.2129,2.2129,2.1951,2.1964,2.198,2.1997,2.2009,2.2022,2.2034,2.2044,2.2059,2.2077,2.2081,2.2099,2.2112,2.2134,2.2142,2.2156,2.2153,2.2158,2.2159,2.216,2.216,2.2128,2.2159,2.2159,2.2159,2.2159,2.2159,0,2.1976,2.1986,2.2003,2.2023,2.2037,2.2037,2.2053,2.2064,2.208,2.2094,2.2108,2.2128,2.2144,2.2155,2.2171,2.218,2.2181,2.2184,2.2183,2.2184,2.2163,2.2158,2.2184,2.2184,2.2184,2.2184,2.2184,2.2184,2.199,2.2012,2.2018,2.2046,2.2056,2.2075,2.2084,2.2096,2.2106,2.2129,2.2144,2.2151,2.2163,2.2181,2.2195,2.2198,2.2203,2.2207,2.2209,2.2189,2.2186,2.2183,2.2179,2.2209,2.2209,2.223,2.223,2.223]}]]